TimeCST,TemperatureF,Dew PointF,Humidity,Sea Level PressureIn,VisibilityMPH,Wind Direction,Wind SpeedMPH,Gust SpeedMPH,PrecipitationIn,Events,Conditions,WindDirDegrees,DateUTC
12:15 AM,42.6,33.3,69,30.29,10.0,NW,5.8,-,N/A,,Scattered Clouds,310,2013-01-16 06:15:00
12:35 AM,42.4,33.1,69,30.30,10.0,NW,8.1,-,N/A,,Scattered Clouds,320,2013-01-16 06:35:00
12:55 AM,42.8,32.9,68,30.30,10.0,NW,8.1,-,N/A,,Scattered Clouds,320,2013-01-16 06:55:00
1:15 AM,42.4,32.9,69,30.31,10.0,NW,9.2,-,N/A,,Scattered Clouds,320,2013-01-16 07:15:00
1:35 AM,41.9,32.9,70,30.31,10.0,NW,5.8,-,N/A,,Scattered Clouds,310,2013-01-16 07:35:00
1:55 AM,41.9,32.2,68,30.31,10.0,NW,5.8,-,N/A,,Clear,320,2013-01-16 07:55:00
2:15 AM,41.0,32.4,71,30.32,10.0,NW,5.8,-,N/A,,Clear,310,2013-01-16 08:15:00
2:35 AM,41.0,32.2,71,30.32,10.0,WNW,5.8,-,N/A,,Clear,300,2013-01-16 08:35:00
2:55 AM,40.6,32.2,72,30.32,10.0,WNW,5.8,-,N/A,,Clear,300,2013-01-16 08:55:00
3:15 AM,40.1,32.0,73,30.32,10.0,WNW,6.9,-,N/A,,Clear,300,2013-01-16 09:15:00
3:35 AM,39.4,31.8,74,30.33,10.0,WNW,5.8,-,N/A,,Clear,300,2013-01-16 09:35:00
4:15 AM,38.7,29.3,69,30.34,10.0,WNW,6.9,-,N/A,,Clear,300,2013-01-16 10:15:00
4:35 AM,37.9,29.3,71,30.34,10.0,WNW,4.6,-,N/A,,Clear,290,2013-01-16 10:35:00
4:55 AM,37.2,29.3,73,30.35,10.0,WNW,5.8,-,N/A,,Clear,290,2013-01-16 10:55:00
5:15 AM,36.0,29.3,77,30.35,10.0,WNW,5.8,-,N/A,,Clear,300,2013-01-16 11:15:00
5:35 AM,36.0,29.1,76,30.35,10.0,WNW,5.8,-,N/A,,Clear,290,2013-01-16 11:35:00
5:55 AM,36.5,29.3,75,30.35,10.0,WNW,6.9,-,N/A,,Clear,300,2013-01-16 11:55:00
6:15 AM,37.8,28.4,69,30.36,10.0,WNW,8.1,-,N/A,,Clear,300,2013-01-16 12:15:00
6:35 AM,38.3,27.3,65,30.36,10.0,WNW,9.2,-,N/A,,Clear,300,2013-01-16 12:35:00
6:55 AM,37.6,27.7,67,30.37,10.0,WNW,6.9,-,N/A,,Clear,300,2013-01-16 12:55:00
7:15 AM,36.7,28.2,71,30.38,10.0,WNW,5.8,-,N/A,,Clear,300,2013-01-16 13:15:00
7:35 AM,35.8,28.4,75,30.39,10.0,WNW,4.6,-,N/A,,Clear,300,2013-01-16 13:35:00
7:55 AM,35.6,28.0,74,30.39,10.0,WNW,3.5,-,N/A,,Clear,300,2013-01-16 13:55:00
8:15 AM,36.1,28.4,73,30.40,10.0,Calm,Calm,-,N/A,,Clear,0,2013-01-16 14:15:00
8:35 AM,39.4,27.1,62,30.40,10.0,NW,6.9,-,N/A,,Clear,320,2013-01-16 14:35:00
8:55 AM,42.1,26.2,53,30.40,10.0,NNW,9.2,-,N/A,,Clear,330,2013-01-16 14:55:00
9:15 AM,44.8,26.1,48,30.41,10.0,NNW,8.1,-,N/A,,Clear,330,2013-01-16 15:15:00
9:35 AM,46.8,23.4,40,30.41,10.0,NW,12.7,-,N/A,,Clear,320,2013-01-16 15:35:00
9:55 AM,48.0,22.8,37,30.41,10.0,NNW,12.7,16.1,N/A,,Clear,330,2013-01-16 15:55:00
10:15 AM,49.1,23.0,36,30.41,10.0,NW,11.5,-,N/A,,Clear,320,2013-01-16 16:15:00
10:35 AM,49.8,23.4,36,30.41,10.0,NW,9.2,16.1,N/A,,Clear,320,2013-01-16 16:35:00
10:55 AM,50.5,23.9,35,30.40,10.0,NW,8.1,-,N/A,,Clear,310,2013-01-16 16:55:00
11:15 AM,52.3,25.2,35,30.38,10.0,NNW,11.5,-,N/A,,Clear,330,2013-01-16 17:15:00
11:35 AM,53.2,25.2,34,30.36,10.0,NNW,9.2,16.1,N/A,,Clear,330,2013-01-16 17:35:00
11:55 AM,-9999,-9999,N/A,-9999,-9999.0,North,-9999.0,-,N/A,,Unknown,0,2013-01-16 17:55:00
12:35 PM,-9999,-9999,N/A,-9999,-9999.0,North,-9999.0,-,N/A,,Unknown,0,2013-01-16 18:35:00
1:15 PM,56.7,16.7,21,30.30,10.0,NW,10.4,20.7,N/A,,Clear,310,2013-01-16 19:15:00
1:35 PM,58.3,11.3,16,30.29,10.0,NNW,16.1,25.3,N/A,,Clear,330,2013-01-16 19:35:00
1:55 PM,58.3,7.2,13,30.27,10.0,NW,9.2,25.3,N/A,,Clear,310,2013-01-16 19:55:00
2:15 PM,59.4,3.6,11,30.27,10.0,WNW,16.1,25.3,N/A,,Clear,300,2013-01-16 20:15:00
2:35 PM,59.5,3.4,11,30.26,10.0,NW,12.7,21.9,N/A,,Clear,310,2013-01-16 20:35:00
2:55 PM,59.5,2.8,10,30.26,10.0,WNW,11.5,21.9,N/A,,Clear,300,2013-01-16 20:55:00
3:15 PM,60.3,2.8,10,30.25,10.0,WNW,15.0,21.9,N/A,,Clear,300,2013-01-16 21:15:00
3:35 PM,60.3,3.0,10,30.25,10.0,WNW,13.8,21.9,N/A,,Clear,300,2013-01-16 21:35:00
3:55 PM,60.4,2.1,10,30.25,10.0,WNW,17.3,21.9,N/A,,Clear,300,2013-01-16 21:55:00
4:15 PM,60.4,0.9,9,30.25,10.0,WNW,15.0,24.2,N/A,,Clear,300,2013-01-16 22:15:00
4:35 PM,60.4,1.2,9,30.25,10.0,WNW,11.5,19.6,N/A,,Clear,300,2013-01-16 22:35:00
4:55 PM,59.9,1.9,10,30.25,10.0,NW,13.8,20.7,N/A,,Clear,310,2013-01-16 22:55:00
5:15 PM,59.9,2.5,10,30.25,10.0,NW,12.7,17.3,N/A,,Clear,320,2013-01-16 23:15:00
5:35 PM,59.2,2.7,10,30.26,10.0,WNW,9.2,-,N/A,,Clear,290,2013-01-16 23:35:00
5:55 PM,58.1,2.7,11,30.26,10.0,WNW,5.8,-,N/A,,Clear,300,2013-01-16 23:55:00
6:15 PM,55.9,3.6,12,30.27,10.0,WNW,3.5,-,N/A,,Clear,300,2013-01-17 00:15:00
6:35 PM,53.8,5.0,14,30.28,10.0,Calm,Calm,-,N/A,,Clear,0,2013-01-17 00:35:00
6:55 PM,49.8,6.3,17,30.28,10.0,Calm,Calm,-,N/A,,Clear,0,2013-01-17 00:55:00
7:15 PM,45.5,17.4,33,30.29,10.0,Calm,Calm,-,N/A,,Clear,0,2013-01-17 01:15:00
7:35 PM,43.0,17.8,36,30.29,10.0,Calm,Calm,-,N/A,,Clear,0,2013-01-17 01:35:00
7:55 PM,41.4,17.2,38,30.30,10.0,Calm,Calm,-,N/A,,Clear,0,2013-01-17 01:55:00
8:15 PM,39.7,19.2,44,30.30,10.0,SW,3.5,-,N/A,,Clear,230,2013-01-17 02:15:00
8:35 PM,43.2,16.0,33,30.31,10.0,Calm,Calm,-,N/A,,Clear,0,2013-01-17 02:35:00
8:55 PM,40.3,21.0,46,30.31,10.0,Calm,Calm,-,N/A,,Clear,0,2013-01-17 02:55:00
9:15 PM,38.7,22.1,51,30.31,10.0,Calm,Calm,-,N/A,,Clear,0,2013-01-17 03:15:00
9:35 PM,40.5,19.4,43,30.32,10.0,Calm,Calm,-,N/A,,Clear,0,2013-01-17 03:35:00
9:55 PM,36.5,24.4,62,30.32,10.0,Calm,Calm,-,N/A,,Clear,0,2013-01-17 03:55:00
10:15 PM,36.0,22.3,58,30.32,10.0,West,3.5,-,N/A,,Clear,260,2013-01-17 04:15:00
10:35 PM,37.2,23.5,58,30.33,10.0,West,3.5,-,N/A,,Clear,270,2013-01-17 04:35:00
10:55 PM,38.5,22.3,52,30.33,10.0,West,4.6,-,N/A,,Clear,270,2013-01-17 04:55:00
11:15 PM,37.4,22.3,54,30.34,10.0,Calm,Calm,-,N/A,,Clear,0,2013-01-17 05:15:00
11:35 PM,37.6,22.1,54,30.34,10.0,Calm,Calm,-,N/A,,Clear,0,2013-01-17 05:35:00
11:55 PM,34.7,24.4,66,30.34,10.0,Calm,Calm,-,N/A,,Clear,0,2013-01-17 05:55:00